TimeEDT,TemperatureF,Dew PointF,Humidity,Sea Level PressureIn,VisibilityMPH,Wind Direction,Wind SpeedMPH,Gust SpeedMPH,PrecipitationIn,Events,Conditions,WindDirDegrees,DateUTC
12:15 AM,73.4,71.6,94,29.96,7.0,Calm,Calm,-,N/A,,Clear,0,2013-08-30 04:15:00
12:35 AM,73.4,71.6,94,29.97,7.0,Calm,Calm,-,N/A,,Clear,0,2013-08-30 04:35:00
12:55 AM,73.4,71.6,94,29.96,7.0,Calm,Calm,-,N/A,,Clear,0,2013-08-30 04:55:00
1:15 AM,73.4,71.6,94,29.96,7.0,Calm,Calm,-,N/A,,Clear,0,2013-08-30 05:15:00
1:35 AM,73.4,71.6,94,29.96,8.0,Calm,Calm,-,N/A,,Clear,0,2013-08-30 05:35:00
1:55 AM,71.6,71.6,100,29.96,8.0,Calm,Calm,-,N/A,,Clear,0,2013-08-30 05:55:00
2:15 AM,71.6,71.6,100,29.95,7.0,Calm,Calm,-,N/A,,Clear,0,2013-08-30 06:15:00
2:35 AM,71.6,71.6,100,29.95,7.0,Calm,Calm,-,N/A,,Clear,0,2013-08-30 06:35:00
2:55 AM,73.4,71.6,94,29.95,8.0,Calm,Calm,-,N/A,,Clear,0,2013-08-30 06:55:00
3:15 AM,73.4,73.4,100,29.94,8.0,Calm,Calm,-,N/A,,Clear,0,2013-08-30 07:15:00
3:35 AM,75.2,73.4,94,29.94,7.0,Calm,Calm,-,N/A,,Clear,0,2013-08-30 07:35:00
3:55 AM,73.4,73.4,100,29.94,7.0,Calm,Calm,-,N/A,,Clear,0,2013-08-30 07:55:00
4:15 AM,73.4,73.4,100,29.94,6.0,Calm,Calm,-,N/A,,Clear,0,2013-08-30 08:15:00
4:35 AM,73.4,73.4,100,29.94,5.0,Calm,Calm,-,N/A,,Partly Cloudy,0,2013-08-30 08:35:00
4:55 AM,73.4,73.4,100,29.94,7.0,Calm,Calm,-,N/A,,Partly Cloudy,0,2013-08-30 08:55:00
5:15 AM,75.2,75.2,100,29.94,7.0,WSW,4.6,-,N/A,,Partly Cloudy,240,2013-08-30 09:15:00
5:35 AM,75.2,75.2,100,29.93,7.0,SW,5.8,-,N/A,,Clear,220,2013-08-30 09:35:00
5:55 AM,75.2,75.2,100,29.94,7.0,Calm,Calm,-,N/A,,Clear,0,2013-08-30 09:55:00
6:15 AM,75.2,75.2,100,29.94,7.0,Calm,Calm,-,N/A,,Clear,0,2013-08-30 10:15:00
6:35 AM,73.4,73.4,100,29.94,6.0,Calm,Calm,-,N/A,,Clear,0,2013-08-30 10:35:00
6:50 AM,73.4,73.4,100,29.94,5.0,Calm,Calm,-,N/A,,Clear,0,2013-08-30 10:50:00
7:50 AM,73.4,73.4,100,29.97,7.0,Calm,Calm,-,N/A,,Clear,0,2013-08-30 11:50:00
8:50 AM,78.8,75.2,89,29.98,10.0,Variable,4.6,-,N/A,,Clear,0,2013-08-30 12:50:00
9:50 AM,84.2,75.2,74,29.98,10.0,Variable,4.6,-,N/A,,Clear,0,2013-08-30 13:50:00
10:50 AM,89.6,75.2,62,29.98,10.0,Variable,5.8,-,N/A,,Clear,0,2013-08-30 14:50:00
11:50 AM,91.4,75.2,59,29.98,10.0,Variable,5.8,-,N/A,,Scattered Clouds,0,2013-08-30 15:50:00
12:50 PM,93.2,73.4,52,29.97,10.0,Variable,5.8,-,N/A,,Mostly Cloudy,0,2013-08-30 16:50:00
1:50 PM,93.2,73.4,52,29.94,5.0,WSW,8.1,-,N/A,,Haze,240,2013-08-30 17:50:00
2:50 PM,93.2,71.6,49,29.92,5.0,WSW,4.6,-,N/A,,Haze,250,2013-08-30 18:50:00
3:50 PM,93.2,71.6,49,29.89,5.0,Variable,5.8,-,N/A,,Haze,0,2013-08-30 19:50:00
4:50 PM,95.0,71.6,47,29.87,5.0,Calm,Calm,-,N/A,,Haze,0,2013-08-30 20:50:00
5:50 PM,91.4,71.6,52,29.88,10.0,Variable,4.6,-,N/A,,Scattered Clouds,0,2013-08-30 21:50:00
6:42 PM,78.8,75.2,89,29.92,1.0,East,18.4,31.1,N/A,Rain-Thunderstorm,Heavy Thunderstorms and Rain,90,2013-08-30 22:42:00
6:50 PM,77.0,75.2,94,29.93,0.2,NNE,16.1,-,N/A,Rain-Thunderstorm,Thunderstorms and Rain,20,2013-08-30 22:50:00
7:34 PM,75.2,75.2,100,29.91,3.0,ENE,6.9,-,N/A,Rain,Light Rain,70,2013-08-30 23:34:00
7:50 PM,75.2,75.2,100,29.91,5.0,East,9.2,-,N/A,Rain,Light Rain,90,2013-08-30 23:50:00
8:15 PM,75.2,75.2,100,29.92,5.0,ENE,3.5,-,N/A,Rain-Thunderstorm,Light Rain,60,2013-08-31 00:15:00
8:35 PM,75.2,75.2,100,29.93,5.0,Calm,Calm,-,N/A,Thunderstorm,Partly Cloudy,0,2013-08-31 00:35:00
8:55 PM,77.0,75.2,94,29.94,6.0,SE,4.6,-,N/A,,Partly Cloudy,140,2013-08-31 00:55:00
9:15 PM,77.0,75.2,94,29.96,8.0,WSW,6.9,-,N/A,,Mostly Cloudy,250,2013-08-31 01:15:00
9:35 PM,75.2,73.4,94,29.97,10.0,WNW,10.4,-,N/A,Thunderstorm,Overcast,290,2013-08-31 01:35:00
9:55 PM,75.2,73.4,94,29.98,8.0,West,13.8,-,N/A,,Overcast,280,2013-08-31 01:55:00
10:15 PM,73.4,73.4,100,29.98,7.0,Calm,Calm,-,N/A,Thunderstorm,Thunderstorm,0,2013-08-31 02:15:00
10:35 PM,73.4,73.4,100,29.97,5.0,NNW,6.9,-,N/A,Rain,Light Rain,340,2013-08-31 02:35:00
10:55 PM,73.4,73.4,100,29.96,3.0,NNE,4.6,-,0.03,Rain,Light Rain,30,2013-08-31 02:55:00
11:15 PM,73.4,73.4,100,29.95,6.0,Calm,Calm,-,N/A,,Partly Cloudy,0,2013-08-31 03:15:00
11:35 PM,73.4,73.4,100,29.94,5.0,Calm,Calm,-,N/A,,Clear,0,2013-08-31 03:35:00
11:55 PM,73.4,73.4,100,29.93,4.0,Calm,Calm,-,N/A,,Clear,0,2013-08-31 03:55:00